Location: Newark
(7.1028°S, 35.3258°W)
Time: 09:47:37
(UTC+00:00)

deb Explorer IX - Pass Details

Date: 29 February 2020
Orbit: 548 x 1100 km, 38.8° (Epoch: 07 April)

Event Time Altitude Azimuth Distance (km) Brightness Sun altitude
Exits shadow 06:14:18 30° 26° (NNE) 1,674 ? -33.1°
Drops below altitude 10° 06:17:23 10° 37° (NE) 2,645 ? -32.3°
Sets 06:19:52 0° 41° (NE) 3,507 ? -31.7°
